Weather in Akis

Russia / Komi Republic     65°50′22″N   56°45′16″E
temp.,
°C
wind,
m/s
gust,
m/s
humid.,
%
clouds,
%
prec.,
mm/h
press.,
hPa
HPBL,
m
24 september, fri
fri2400:00+3s2296100 0.0 102537
03:00+3s2396100 0.0 102553
06:00+3s2394100 0.0 102562
09:00+6s2477100 0.0 1025267
12:00+9sse2367100 0.0 1024433
15:00+9sse257076 0.0 1024436
18:00+5se249038 0.0 102457
21:00+3se239321 0.0 102454
25 september, sat
sat2500:00+3se23945 0.0 102457
03:00+2se27955 0.0 1024133
06:00+2se29825 0.0 1023181
09:00+8se410555 0.0 1022361
12:00+11sse4104999 0.0 1022668
15:00+11sse41056100 0.0 1021678
18:00+8sse51365100 0.0 1022569
21:00+7s51465100 0.0 1022737
26 september, sun
sun2600:00+7s51368100 0.1 1023713
03:00+6sse41377100 0.6 1023580
06:00+6sse41383100 0.8 1024565
09:00+6sse41279100 1.2 1024602
12:00+7sse31177100 0.4 1025721
15:00+8sse41068100 0.4 1027717
18:00+6s41168100 0.0 1028553
21:00+5s41265100 0.0 1029596
27 september, mon
mon2700:00+4s3126485 0.0 1031569
03:00+3sse21072100 0.0 1032358
06:00+2sse2977100 0.0 1033297
09:00+5s3961100 0.0 1033477
12:00+6s3653100 0.0 1033630
15:00+6ssw2659100 0.0 1033725
18:00+4ssw2471100 0.0 1033102
21:00+3sw2474100 0.0 1032126
28 september, tue
tue2800:00+3wsw1483100 0.3 1032158
03:00+2sw2698100 1.2 1031363
06:00+2sw2598100 0.4 1030305
09:00+3sw2398100 0.6 1030198
12:00+4sw2395100 0.1 1030208
15:00+5wsw239172 0.1 1029277
18:00+3ssw119792 0.0 102918
21:00+4ssw2497100 0.3 1027128